Presure
136 144 160 121 150 138 124 116 135 156 155 150 153 162 161 159 158 164 173 174 172 164 168 179 180 182 153 169 174 176 177 161 174 178 179 197 157 187 190 178 177 167 167 188 199 191 195
150 128 132 125 112 132 135 124 147 127 144 127 129 183 172 179 165 176 172 175 138 176 182 182 197 138 171 183 158 163 179 161 182 183 198 168 154 170 175 179 175 181 180 167 183 185 184
143 124 100 114 113 115 134 119 116 164 168 136 159 160 174 183 137 179 189 201 173 150 192 183 154 191 181 159 173 156 162 186 178 212 130 162 163 159 162 180 167 209 169 176 186 182 188
101 124 125 136 124 141 96 137 127 104 127 140 163 123 144 156 190 154 176 198 206 149 200 167 155 185 179 208 189 136 185 171 165 161 183 186 200 164 179 173 171 187 192 184 155 196 192
121 127 114 108 106 171 122 141 138 154 152 176 135 105 158 156 131 154 171 181 191 160 191 199 198 172 197 194 154 198 188 169 183 180 177 156 188 181 155 150 184 169 198 196 196 207 192
134 138 134 155 147 150 128 125 145 116 139 153 165 146 171 179 133 163 177 167 160 205 173 178 195 162 204 213 148 145 187 191 200 160 171 190 189 190 155 181 199 192 193 189 188 188 187
102 104 150 168 100 115 127 139 96 151 153 166 179 128 166 182 157 161 153 153 104 188 204 180 174 201 226 149 187 206 195 207 203 196 202 193 212 214 166 186 201 191 181 183 200 190 194
133 144 150 143 144 100 133 112 144 150 120 114 136 109 174 174 160 89 156 177 160 177 181 176 192 194 191 182 193 189 184 184 190 177 189 195 187 178 172 186 158 159 212 219 207 179 205
122 133 103 110 171 136 120 135 114 150 137 104 158 163 158 182 159 185 166 174 157 159 193 170 174 187 177 133 176 173 186 178 187 167 155 188 183 170 188 180 171 205 163 205 199 216 260
139 117 134 127 109 160 134 152 144 120 174 115 174 151 159 181 151 179 179 169 169 187 179 179 166 169 186 184 179 187 187 180 160 168 160 140 172 184 181 204 177 212 206 245 214 279 267
109 120 94 152 101 106 119 115 192 159 170 176 174 142 171 147 177 145 167 170 164 180 182 185 189 182 165 186 179 142 189 154 159 196 147 190 173 187 161 178 148 233 220 214 231 267 264
125 114 134 129 145 152 104 171 166 136 171 114 135 139 167 145 158 172 177 153 187 182 169 160 186 188 176 180 184 199 180 158 182 152 195 170 191 186 217 206 201 183 252 271 264 262 264
106 142 160 138 128 149 160 145 152 130 159 174 144 156 164 170 157 164 161 177 156 187 188 164 184 186 177 190 183 187 198 191 144 204 160 200 202 204 173 207 219 272 266 257 257 267 262
139 113 108 145 133 150 119 168 127 136 141 173 154 162 160 173 170 169 151 164 175 177 161 196 199 169 175 189 159 190 176 167 199 191 201 219 209 227 197 235 270 261 259 262 263 264 279
96 140 159 97 134 162 166 155 151 137 152 168 174 173 118 170 165 158 172 179 186 182 190 193 195 158 179 183 187 194 204 138 200 157 224 200 212 198 273 259 271 259 263 263 264 284 264
102 135 119 141 133 154 143 154 178 158 147 98 160 140 160 156 170 167 170 168 167 176 179 186 177 197 174 186 182 193 177 195 196 187 197 209 196 200 274 273 264 263 259 266 287 262 280
126 116 107 141 136 111 133 150 130 180 101 176 178 165 163 169 168 170 173 145 166 179 166 191 175 175 181 188 166 193 192 182 178 208 207 218 216 210 277 263 260 256 266 287 256 283 412
126 106 156 113 111 176 139 107 171 160 132 171 133 175 179 138 157 161 170 146 187 159 176 182 194 181 192 186 196 183 197 189 181 210 208 218 226 214 267 260 257 263 280 255 273 406 392
148 141 112 109 125 123 99 98 158 110 161 152 162 158 167 179 166 165 172 170 196 169 189 182 182 194 194 194 194 189 186 205 202 202 232 228 261 269 186 264 254 278 258 255 411 395 355
137 127 157 151 149 152 153 165 138 155 141 178 176 158 166 164 166 183 170 171 168 182 197 186 188 173 189 187 195 203 186 195 211 217 234 207 268 227 273 253 271 270 245 380 400 361 377
97 158 156 119 151 157 158 142 171 153 140 168 159 175 174 171 175 165 160 168 166 192 174 196 202 183 189 195 197 195 189 188 200 215 238 227 276 258 269 265 280 252 290 407 360 376 354
159 124 156 136 167 95 163 163 155 162 127 158 168 174 154 144 180 182 175 150 168 185 188 181 202 194 196 203 201 196 188 199 216 209 228 230 268 272 259 277 259 248 421 362 372 352 336
168 141 120 161 151 140 161 165 165 156 153 147 169 173 171 185 142 185 169 169 184 179 191 185 189 201 197 198 199 199 187 199 191 227 252 251 277 265 272 269 252 313 373 370 350 344 338
172 103 132 157 140 122 171 160 177 162 163 168 164 160 155 185 173 187 174 173 179 177 187 189 196 201 188 205 191 191 190 204 198 232 207 278 274 266 276 256 262 376 373 357 345 333 329
140 156 158 158 156 158 167 164 171 165 161 168 154 166 158 190 172 177 167 180 180 185 178 199 193 200 201 203 189 197 204 213 219 265 234 235 271 276 265 255 400 380 373 353 337 329 315
178 150 122 167 155 175 177 169 126 162 148 180 156 158 171 157 175 174 171 181 185 174 198 185 201 193 199 205 196 192 201 203 219 242 228 276 265 278 254 276 392 378 359 350 338 315 337
144 160 162 164 163 177 171 158 152 170 164 174 164 159 178 185 166 175 194 176 182 195 178 206 187 189 200 197 204 201 198 195 216 224 214 273 270 272 259 324 375 360 349 337 330 351 368
153 168 168 180 171 170 165 151 171 169 159 163 166 184 177 172 170 172 175 173 191 178 191 192 190 191 197 198 202 196 191 210 235 277 221 271 282 258 265 402 365 359 341 332 370 356 333
169 174 162 188 148 171 147 158 172 169 163 162 197 180 173 175 181 181 182 183 197 190 200 179 200 199 190 190 206 198 201 190 222 228 280 262 275 253 281 396 364 345 335 335 335 323 309
Wind_Speed
18 21 22 18 23 30 23 40 15 30 32 35 35 32 33 36 36 39 41 41 41 41 42 44 44 45 40 39 40 42 42 44 46 45 47 48 40 50 50 44 47 43 45 59 65 67 65
17 22 20 27 36 29 26 12 33 40 29 42 41 26 32 32 38 37 38 41 37 45 45 45 45 40 43 45 41 44 46 38 48 51 49 44 48 49 51 54 55 63 61 47 64 65 62
16 16 9 15 35 14 15 45 40 31 30 41 34 38 30 32 49 38 42 45 44 40 43 46 40 46 46 47 45 50 52 45 48 44 37 53 55 54 59 62 52 63 58 69 78 73 77
6 24 28 23 34 26 20 33 32 17 47 42 33 45 45 43 33 47 40 49 44 36 42 41 45 42 51 43 44 35 41 51 44 54 50 52 55 59 66 60 61 75 78 75 52 81 81
21 18 21 25 27 26 41 35 38 45 38 26 49 33 43 41 36 45 46 47 47 37 43 42 40 45 42 40 53 41 43 52 46 52 56 58 61 66 53 50 71 66 80 82 82 89 83
17 19 21 30 29 36 37 40 42 43 48 34 36 53 33 35 35 39 46 43 43 53 40 38 47 50 51 43 59 35 49 52 54 64 53 65 67 69 53 70 77 75 76 77 79 82 85
12 18 29 36 18 38 40 40 19 46 50 37 31 38 37 34 38 37 45 49 38 51 57 45 45 58 47 58 49 51 54 56 61 62 67 64 72 74 69 74 80 77 77 79 88 86 89
21 20 30 27 38 21 38 42 47 52 40 48 45 41 38 35 42 34 41 52 45 53 59 53 64 63 60 58 64 60 57 57 58 61 64 68 70 66 72 78 73 74 97 99 92 84 97
20 23 18 21 37 32 35 40 51 50 42 28 53 46 45 44 36 52 38 45 43 52 67 47 50 64 49 54 66 58 66 64 64 56 69 76 73 77 84 81 84 96 80 92 94 99 88
25 35 26 24 37 44 41 48 44 43 44 28 52 47 52 54 43 58 58 45 39 61 56 64 56 61 75 71 61 69 71 66 62 73 69 61 69 79 80 98 84 100 97 98 97 78 80
23 38 21 42 24 30 47 51 35 55 53 50 55 44 59 43 58 63 57 50 49 65 66 68 77 66 53 85 73 73 79 74 70 80 78 81 83 78 88 86 71 108 104 96 98 79 81
37 24 32 41 41 47 34 46 40 41 57 56 45 51 60 44 61 67 73 51 78 79 55 51 79 76 70 80 78 84 79 72 77 74 88 84 88 86 104 108 98 93 94 81 83 86 91
23 37 38 28 39 43 47 46 56 53 58 58 54 60 68 71 62 67 56 82 64 85 85 57 83 84 73 92 85 86 89 89 76 107 85 101 105 103 93 108 115 88 87 90 92 96 95
36 43 35 45 39 51 48 58 52 49 55 60 61 70 61 75 76 74 55 71 85 87 69 90 90 64 74 98 67 98 78 91 108 97 109 116 103 110 97 106 90 89 89 92 96 96 102
21 41 56 27 45 48 53 57 58 59 62 67 68 68 63 75 78 71 86 86 94 92 95 99 93 84 85 93 100 105 108 78 106 93 115 104 113 101 102 103 90 94 98 98 99 106 96
22 47 42 53 48 62 51 63 59 66 58 37 72 67 70 68 79 78 84 82 78 90 99 105 90 102 81 104 94 100 90 110 107 98 109 116 110 108 101 96 97 100 99 105 108 101 106
50 35 46 48 47 45 61 62 53 59 53 63 66 73 74 76 81 84 89 76 81 98 80 106 86 87 102 111 93 113 115 107 101 126 121 129 124 125 96 100 104 105 110 109 103 113 58
54 36 56 46 43 54 55 49 57 71 65 68 68 74 77 71 76 79 89 68 107 68 96 108 109 103 113 106 120 103 125 115 96 124 131 135 135 132 102 105 106 112 110 104 111 53 52
59 60 44 42 58 59 47 49 62 61 74 74 78 77 83 88 83 86 92 93 105 96 104 108 110 114 117 119 120 117 110 131 125 124 139 135 114 104 90 107 111 112 106 110 49 48 60
49 61 68 68 66 69 72 77 64 73 67 79 82 78 85 85 88 98 92 97 94 111 110 112 111 100 116 116 124 126 111 119 134 144 139 125 111 97 107 108 113 110 108 65 42 54 44
40 78 73 47 69 75 73 67 79 76 73 81 81 89 89 92 102 89 83 94 95 116 97 117 115 110 120 123 125 124 116 112 127 143 137 131 110 115 113 114 113 109 108 39 54 42 43
81 65 77 67 82 50 87 87 85 88 62 81 86 93 79 77 103 107 101 71 99 116 120 114 119 121 123 127 119 128 115 133 145 145 140 125 115 114 115 116 111 111 38 55 39 43 44
84 66 58 85 81 67 89 91 86 85 83 75 90 94 97 106 74 110 96 97 120 120 122 123 125 124 124 128 127 132 113 136 118 150 131 128 117 115 117 114 112 96 54 40 42 42 41
85 54 70 81 72 59 87 91 85 88 86 93 93 91 87 108 104 115 109 110 116 111 127 131 130 128 120 131 116 122 121 145 138 149 126 119 119 119 116 113 116 59 43 38 39 41 39
73 87 90 81 90 91 93 93 93 92 93 92 84 98 91 110 107 114 96 122 125 128 118 130 131 133 133 133 115 126 144 150 149 128 132 136 120 119 114 114 43 41 37 38 38 41 45
89 77 64 91 88 89 92 95 58 90 78 98 89 93 109 92 112 113 105 124 129 103 130 131 130 125 133 136 131 126 141 144 156 142 143 120 122 118 113 123 37 37 39 37 37 43 41
79 96 96 95 98 92 93 96 87 94 101 105 102 97 111 117 102 117 129 116 131 127 122 131 124 124 135 129 143 138 133 118 140 128 139 122 121 117 116 100 41 41 39 41 41 38 31
92 102 95 92 95 96 89 87 101 87 99 104 109 114 110 112 107 112 117 116 134 125 135 135 133 127 133 137 139 129 114 145 142 130 149 121 120 114 118 28 33 33 36 37 33 27 26
100 89 86 91 80 93 76 99 107 107 103 102 109 113 113 112 126 129 124 136 134 143 138 111 139 139 126 117 144 132 138 101 156 154 118 121 117 112 129 24 25 32 30 30 26 24 28
Wind_Direction
28 32 26 36 21 12 12 17 7 9 7 7 5 358 353 355 350 348 344 337 335 334 330 325 321 319 327 316 316 316 315 312 310 309 308 304 306 309 310 306 311 292 294 309 300 299 298
26 7 9 21 21 12 1 354 360 355 358 355 358 354 349 350 346 344 340 338 350 333 331 325 319 351 321 315 315 317 315 321 311 311 306 313 319 308 312 315 313 312 310 294 308 305 300
10 357 37 25 5 355 353 355 14 357 352 354 349 355 353 356 346 352 350 345 336 327 324 327 339 316 318 320 315 322 316 314 309 304 291 308 311 315 317 315 307 303 309 306 308 307 305
34 342 344 359 343 4 329 355 349 358 345 349 344 356 350 346 5 343 357 356 340 330 331 323 334 326 318 322 321 337 308 306 318 318 312 314 306 312 312 312 311 306 305 305 283 302 302
349 341 2 5 13 351 339 356 352 356 346 350 347 338 345 342 334 336 350 1 355 345 347 339 335 339 326 329 335 320 312 307 312 310 310 314 312 315 304 317 307 310 303 303 304 303 302
329 344 331 344 355 353 329 346 346 349 347 343 343 345 343 352 351 341 356 349 350 0 345 349 350 332 346 336 336 316 324 324 316 311 319 317 312 308 311 307 305 305 306 305 304 303 304
347 354 343 343 344 337 330 350 323 344 345 329 341 349 337 345 328 337 327 331 325 0 1 353 335 357 336 317 337 333 337 328 324 322 314 316 308 306 310 310 307 310 305 306 303 301 300
320 329 336 340 343 333 337 347 345 346 349 350 336 356 337 340 336 325 324 347 336 354 354 352 358 355 352 350 346 338 335 337 330 326 323 321 316 314 310 315 311 311 307 303 303 303 299
322 317 341 325 322 329 339 336 341 342 335 341 336 336 337 345 341 348 332 351 317 349 351 341 345 354 349 333 346 333 337 333 331 316 316 327 321 318 320 314 311 314 313 306 305 303 293
303 306 320 315 334 329 327 337 338 339 323 322 331 329 340 344 330 347 350 342 337 352 348 345 335 335 354 352 340 342 340 333 318 325 309 325 313 320 322 325 303 316 314 305 305 298 293
318 314 307 328 325 321 320 328 317 334 330 332 331 333 340 319 339 343 347 348 339 348 348 346 349 349 332 348 335 328 340 314 308 331 323 327 324 319 310 321 313 312 314 308 310 301 300
294 302 315 312 326 326 328 325 326 332 329 333 330 336 337 320 333 345 345 327 344 345 343 324 345 343 343 346 341 339 336 330 327 330 332 311 327 322 320 321 317 308 314 311 308 307 304
305 311 305 314 301 312 314 323 330 329 329 328 324 333 336 340 329 343 337 341 326 341 340 330 343 341 343 345 339 341 339 338 325 338 325 329 328 326 322 323 321 318 318 314 312 308 306
296 303 301 312 313 320 312 323 307 314 322 329 329 331 332 336 337 337 327 338 339 342 328 338 338 333 339 342 311 340 331 325 340 333 331 329 326 321 325 328 321 319 316 314 312 312 309
289 292 306 311 301 309 315 317 324 318 325 325 327 330 329 333 334 330 334 336 338 340 339 340 337 328 339 339 338 341 344 329 337 318 331 328 330 328 329 329 323 321 319 317 317 313 311
291 294 303 308 303 315 316 320 319 318 314 332 325 325 329 321 331 332 334 334 337 339 340 338 337 334 337 338 337 335 329 336 335 331 331 330 324 333 330 326 325 322 321 320 317 316 315
280 288 297 303 300 316 306 311 316 321 319 324 326 324 326 328 330 331 334 320 336 337 337 336 333 336 340 335 335 340 338 330 327 333 334 333 334 334 329 330 327 326 324 322 321 320 312
279 288 294 304 308 307 305 307 316 317 308 322 313 324 326 310 326 327 332 317 335 327 336 336 332 336 334 339 336 339 334 335 327 335 335 334 332 334 331 329 328 327 325 324 322 314 314
295 297 293 298 291 299 308 307 314 311 316 318 321 321 325 329 328 327 332 334 332 335 332 335 335 330 335 335 335 333 335 335 334 336 333 333 334 332 323 330 330 327 326 325 313 313 316
282 280 291 300 302 305 307 304 304 312 310 321 319 317 321 325 326 330 331 331 332 333 330 332 332 325 336 336 333 332 333 333 336 335 332 339 333 328 330 331 330 329 328 321 313 316 318
279 291 290 297 302 299 304 306 307 309 310 315 314 321 321 325 327 323 327 329 330 331 331 331 329 333 332 330 332 333 333 332 337 337 331 337 333 333 332 332 331 330 329 316 320 318 322
283 284 291 294 291 303 297 301 305 306 307 313 317 322 313 313 327 326 326 318 329 331 331 333 328 329 328 328 330 334 334 336 334 336 333 337 334 332 333 332 332 330 317 322 322 322 326
276 287 287 288 294 296 297 297 301 304 308 310 314 319 321 322 314 325 324 328 329 329 329 331 329 327 330 329 332 331 333 336 335 334 333 335 332 334 334 333 332 332 322 324 322 323 327
274 280 288 288 293 295 293 299 300 304 306 311 315 317 316 322 323 324 325 327 328 328 328 328 327 328 330 328 333 330 335 335 335 332 337 333 333 334 334 333 333 325 322 323 323 327 326
282 285 286 288 294 293 293 296 298 303 306 308 312 315 315 319 321 322 323 324 325 327 328 325 326 327 327 328 332 332 334 332 333 335 332 335 334 335 334 332 325 321 323 327 331 328 328
273 285 292 284 292 286 288 295 299 303 304 306 313 314 317 316 318 319 320 323 323 320 322 326 324 327 326 328 334 334 334 335 333 332 336 333 334 335 334 337 324 325 327 330 333 330 331
281 282 283 286 289 287 291 296 301 299 304 306 310 312 314 314 316 318 320 323 324 322 325 321 327 328 327 330 329 331 335 334 334 335 339 334 334 335 334 337 328 329 332 334 335 334 336
283 277 280 279 284 288 289 298 298 298 304 307 308 309 311 311 315 316 318 322 318 322 321 322 324 327 326 329 330 332 331 332 334 334 334 334 335 335 336 324 324 324 330 334 338 351 352
270 274 281 277 291 284 295 296 294 297 303 306 302 307 309 313 312 315 317 317 316 317 318 324 319 322 326 331 327 331 330 333 334 333 332 334 335 334 338 324 321 325 333 340 347 354 357